Time,TemperatureF,DewpointF,PressureIn,WindDirection,WindDirectionDegrees,WindSpeedMPH,WindSpeedGustMPH,Humidity,HourlyPrecipIn,Conditions,Clouds,dailyrainin,SoftwareType,DateUTC
2013-06-08 00:15:00,57.5,52.7,29.90,NE,47,0.0,0.0,84,0.00,,,0.00,Wunderground v.1.15,2013-06-08 05:15:00,
2013-06-08 00:20:00,57.4,52.6,29.89,NE,47,0.0,0.0,84,0.00,,,0.00,Wunderground v.1.15,2013-06-08 05:20:00,
2013-06-08 00:25:00,57.4,52.6,29.89,NE,47,0.0,0.0,84,0.00,,,0.00,Wunderground v.1.15,2013-06-08 05:25:00,
2013-06-08 00:35:00,57.2,52.4,29.89,NE,47,0.0,0.0,84,0.00,,,0.00,Wunderground v.1.15,2013-06-08 05:35:00,
2013-06-08 00:45:00,57.0,52.2,29.89,NE,47,0.0,0.0,84,0.00,,,0.00,Wunderground v.1.15,2013-06-08 05:45:00,
2013-06-08 00:55:00,56.9,51.8,29.89,NE,47,0.0,0.0,83,0.00,,,0.00,Wunderground v.1.15,2013-06-08 05:55:00,
2013-06-08 01:00:00,57.0,51.9,29.89,NE,47,0.0,0.0,83,0.00,,,0.00,Wunderground v.1.15,2013-06-08 06:00:00,
2013-06-08 01:05:00,57.4,51.6,29.89,NE,47,0.0,0.0,81,0.00,,,0.00,Wunderground v.1.15,2013-06-08 06:05:00,
2013-06-08 01:10:00,57.8,51.7,29.89,NE,47,0.0,0.0,80,0.00,,,0.00,Wunderground v.1.15,2013-06-08 06:10:00,
2013-06-08 01:15:00,58.1,51.3,29.89,NE,47,0.0,0.0,78,0.00,,,0.00,Wunderground v.1.15,2013-06-08 06:15:00,
2013-06-08 01:20:00,58.4,50.9,29.89,NE,47,0.0,0.0,76,0.00,,,0.00,Wunderground v.1.15,2013-06-08 06:20:00,
2013-06-08 01:30:00,58.9,50.3,29.89,NE,47,0.0,0.0,73,0.00,,,0.00,Wunderground v.1.15,2013-06-08 06:30:00,
2013-06-08 01:35:00,59.2,50.2,29.89,NE,47,0.0,0.0,72,0.00,,,0.00,Wunderground v.1.15,2013-06-08 06:35:00,
2013-06-08 01:40:00,59.2,50.2,29.89,NE,47,0.0,0.0,72,0.00,,,0.00,Wunderground v.1.15,2013-06-08 06:40:00,
2013-06-08 01:45:00,59.0,49.6,29.89,NE,47,0.0,0.0,71,0.00,,,0.00,Wunderground v.1.15,2013-06-08 06:45:00,
2013-06-08 01:50:00,59.0,49.6,29.89,NE,49,0.0,0.0,71,0.00,,,0.00,Wunderground v.1.15,2013-06-08 06:50:00,
2013-06-08 01:55:00,59.0,49.6,29.89,NE,49,0.0,0.0,71,0.00,,,0.00,Wunderground v.1.15,2013-06-08 06:55:00,
2013-06-08 02:00:00,59.0,49.6,29.89,NE,49,0.0,0.0,71,0.00,,,0.00,Wunderground v.1.15,2013-06-08 07:00:00,
2013-06-08 02:05:00,58.9,49.5,29.90,NE,49,0.0,0.0,71,0.00,,,0.00,Wunderground v.1.15,2013-06-08 07:05:00,
2013-06-08 02:10:00,58.7,49.3,29.90,NE,49,0.0,0.0,71,0.00,,,0.00,Wunderground v.1.15,2013-06-08 07:10:00,
2013-06-08 02:15:00,58.7,49.7,29.90,NE,49,0.0,0.0,72,0.00,,,0.00,Wunderground v.1.15,2013-06-08 07:15:00,
2013-06-08 02:25:00,58.6,49.6,29.90,NNW,333,0.0,0.0,72,0.00,,,0.00,Wunderground v.1.15,2013-06-08 07:25:00,
2013-06-08 02:35:00,58.4,49.4,29.91,NNW,333,0.0,0.0,72,0.00,,,0.00,Wunderground v.1.15,2013-06-08 07:35:00,
2013-06-08 02:45:00,58.1,49.1,29.91,East,85,0.0,0.0,72,0.00,,,0.00,Wunderground v.1.15,2013-06-08 07:45:00,
2013-06-08 02:55:00,58.0,49.0,29.90,East,85,0.0,0.0,72,0.00,,,0.00,Wunderground v.1.15,2013-06-08 07:55:00,
2013-06-08 03:05:00,57.8,49.2,29.90,East,100,0.0,0.0,73,0.00,,,0.00,Wunderground v.1.15,2013-06-08 08:05:00,
2013-06-08 03:10:00,57.7,49.1,29.90,East,100,0.0,0.0,73,0.00,,,0.00,Wunderground v.1.15,2013-06-08 08:10:00,
2013-06-08 03:15:00,57.5,49.3,29.90,East,100,0.0,0.0,74,0.00,,,0.00,Wunderground v.1.15,2013-06-08 08:15:00,
2013-06-08 03:20:00,57.4,49.2,29.89,East,100,0.0,0.0,74,0.00,,,0.00,Wunderground v.1.15,2013-06-08 08:20:00,
2013-06-08 03:25:00,57.4,49.2,29.89,East,100,0.0,0.0,74,0.00,,,0.00,Wunderground v.1.15,2013-06-08 08:25:00,
2013-06-08 03:35:00,57.2,49.0,29.90,East,100,0.0,0.0,74,0.00,,,0.00,Wunderground v.1.15,2013-06-08 08:35:00,
2013-06-08 03:40:00,57.0,49.2,29.90,East,100,0.0,0.0,75,0.00,,,0.00,Wunderground v.1.15,2013-06-08 08:40:00,
2013-06-08 03:45:00,56.9,49.1,29.90,East,100,0.0,0.0,75,0.00,,,0.00,Wunderground v.1.15,2013-06-08 08:45:00,
2013-06-08 03:50:00,56.9,49.1,29.90,East,100,0.0,0.0,75,0.00,,,0.00,Wunderground v.1.15,2013-06-08 08:50:00,
2013-06-08 03:55:00,56.7,48.9,29.90,East,100,0.0,0.0,75,0.00,,,0.00,Wunderground v.1.15,2013-06-08 08:55:00,
2013-06-08 04:00:00,56.7,49.2,29.90,ESE,116,0.0,0.0,76,0.00,,,0.00,Wunderground v.1.15,2013-06-08 09:00:00,
2013-06-08 04:10:00,56.6,48.8,29.89,ESE,116,0.0,0.0,75,0.00,,,0.00,Wunderground v.1.15,2013-06-08 09:10:00,
2013-06-08 04:25:00,56.4,48.9,29.89,ESE,116,0.0,0.0,76,0.00,,,0.00,Wunderground v.1.15,2013-06-08 09:25:00,
2013-06-08 04:35:00,56.3,48.8,29.90,ESE,116,0.0,0.0,76,0.00,,,0.00,Wunderground v.1.15,2013-06-08 09:35:00,
2013-06-08 04:40:00,56.1,48.6,29.90,ESE,116,0.0,0.0,76,0.00,,,0.00,Wunderground v.1.15,2013-06-08 09:40:00,
2013-06-08 04:45:00,56.0,48.9,29.90,ESE,116,0.0,0.0,77,0.00,,,0.00,Wunderground v.1.15,2013-06-08 09:45:00,
2013-06-08 04:50:00,55.9,49.1,29.91,ESE,116,0.0,0.0,78,0.00,,,0.00,Wunderground v.1.15,2013-06-08 09:50:00,
2013-06-08 05:00:00,55.7,48.9,29.91,ESE,116,0.0,0.0,78,0.00,,,0.00,Wunderground v.1.15,2013-06-08 10:00:00,
2013-06-08 05:05:00,55.7,48.9,29.91,ESE,116,0.0,0.0,78,0.00,,,0.00,Wunderground v.1.15,2013-06-08 10:05:00,
2013-06-08 05:10:00,55.6,48.8,29.91,ESE,116,0.0,0.0,78,0.00,,,0.00,Wunderground v.1.15,2013-06-08 10:10:00,
2013-06-08 05:15:00,55.6,48.8,29.91,ESE,116,0.0,0.0,78,0.00,,,0.00,Wunderground v.1.15,2013-06-08 10:15:00,
2013-06-08 05:20:00,55.4,48.7,29.91,ESE,116,0.0,0.0,78,0.00,,,0.00,Wunderground v.1.15,2013-06-08 10:20:00,
2013-06-08 05:25:00,55.4,49.0,29.91,ESE,116,0.0,0.0,79,0.00,,,0.00,Wunderground v.1.15,2013-06-08 10:25:00,
2013-06-08 05:30:00,55.3,48.9,29.91,ESE,116,0.0,0.0,79,0.00,,,0.00,Wunderground v.1.15,2013-06-08 10:30:00,
2013-06-08 05:40:00,55.1,49.0,29.91,ESE,116,0.0,0.0,80,0.00,,,0.00,Wunderground v.1.15,2013-06-08 10:40:00,
2013-06-08 05:50:00,54.8,48.7,29.91,ESE,116,0.0,0.0,80,0.00,,,0.00,Wunderground v.1.15,2013-06-08 10:50:00,
2013-06-08 05:55:00,54.8,48.7,29.91,ESE,116,0.0,0.0,80,0.00,,,0.00,Wunderground v.1.15,2013-06-08 10:55:00,
2013-06-08 06:00:00,54.8,49.1,29.91,ESE,116,0.0,0.0,81,0.00,,,0.00,Wunderground v.1.15,2013-06-08 11:00:00,
2013-06-08 06:15:00,54.8,49.1,29.91,ESE,116,0.0,0.0,81,0.00,,,0.00,Wunderground v.1.15,2013-06-08 11:15:00,
2013-06-08 06:20:00,55.0,48.9,29.92,ESE,116,0.0,0.0,80,0.00,,,0.00,Wunderground v.1.15,2013-06-08 11:20:00,
2013-06-08 06:25:00,55.0,48.9,29.92,ESE,116,0.0,0.0,80,0.00,,,0.00,Wunderground v.1.15,2013-06-08 11:25:00,
2013-06-08 06:35:00,55.3,49.2,29.92,ESE,116,0.0,0.0,80,0.00,,,0.00,Wunderground v.1.15,2013-06-08 11:35:00,
2013-06-08 06:40:00,55.3,48.9,29.92,ESE,116,0.0,0.0,79,0.00,,,0.00,Wunderground v.1.15,2013-06-08 11:40:00,
2013-06-08 06:45:00,55.4,48.7,29.92,ESE,116,0.0,0.0,78,0.00,,,0.00,Wunderground v.1.15,2013-06-08 11:45:00,
2013-06-08 06:50:00,55.4,48.3,29.92,ESE,116,0.0,0.0,77,0.00,,,0.00,Wunderground v.1.15,2013-06-08 11:50:00,
2013-06-08 07:05:00,56.1,48.6,29.93,ESE,116,0.0,0.0,76,0.00,,,0.00,Wunderground v.1.15,2013-06-08 12:05:00,
2013-06-08 07:10:00,56.4,48.2,29.93,SSW,196,0.0,0.0,74,0.00,,,0.00,Wunderground v.1.15,2013-06-08 12:10:00,
2013-06-08 07:15:00,56.7,48.1,29.93,South,185,1.0,1.0,73,0.00,,,0.00,Wunderground v.1.15,2013-06-08 12:15:00,
2013-06-08 07:20:00,57.2,47.5,29.93,SE,136,1.0,1.0,70,0.00,,,0.00,Wunderground v.1.15,2013-06-08 12:20:00,
2013-06-08 07:30:00,58.1,47.6,29.93,SE,137,0.0,2.0,68,0.00,,,0.00,Wunderground v.1.15,2013-06-08 12:30:00,
2013-06-08 07:35:00,58.7,47.8,29.93,SSE,150,1.0,2.0,67,0.00,,,0.00,Wunderground v.1.15,2013-06-08 12:35:00,
2013-06-08 07:40:00,59.2,48.2,29.93,SSE,158,1.0,1.0,67,0.00,,,0.00,Wunderground v.1.15,2013-06-08 12:40:00,
2013-06-08 07:50:00,59.8,47.6,29.93,SSE,155,1.0,1.0,64,0.00,,,0.00,Wunderground v.1.15,2013-06-08 12:50:00,
2013-06-08 07:55:00,60.1,48.3,29.93,SSE,157,1.0,3.0,65,0.00,,,0.00,Wunderground v.1.15,2013-06-08 12:55:00,
2013-06-08 08:00:00,60.4,48.2,29.93,SE,141,0.0,0.0,64,0.00,,,0.00,Wunderground v.1.15,2013-06-08 13:00:00,
2013-06-08 08:05:00,60.7,48.4,29.93,SSE,147,1.0,1.0,64,0.00,,,0.00,Wunderground v.1.15,2013-06-08 13:05:00,
2013-06-08 08:10:00,61.0,48.3,29.93,SE,145,1.0,7.0,63,0.00,,,0.00,Wunderground v.1.15,2013-06-08 13:10:00,
2013-06-08 08:15:00,61.2,48.5,29.93,SE,138,1.0,7.0,63,0.00,,,0.00,Wunderground v.1.15,2013-06-08 13:15:00,
2013-06-08 08:30:00,62.1,48.9,29.92,SSW,199,1.0,1.0,62,0.00,,,0.00,Wunderground v.1.15,2013-06-08 13:30:00,
2013-06-08 08:35:00,62.3,48.7,29.92,SSW,198,1.0,1.0,61,0.00,,,0.00,Wunderground v.1.15,2013-06-08 13:35:00,
2013-06-08 08:40:00,62.6,49.0,29.92,SSE,154,1.0,1.0,61,0.00,,,0.00,Wunderground v.1.15,2013-06-08 13:40:00,
2013-06-08 08:50:00,63.3,48.7,29.92,SE,128,1.0,3.0,59,0.00,,,0.00,Wunderground v.1.15,2013-06-08 13:50:00,
2013-06-08 08:55:00,63.4,49.3,29.92,SSE,157,1.0,3.0,60,0.00,,,0.00,Wunderground v.1.15,2013-06-08 13:55:00,
2013-06-08 09:00:00,64.1,50.8,29.92,SSE,148,0.0,0.0,62,0.00,,,0.00,Wunderground v.1.15,2013-06-08 14:00:00,
2013-06-08 09:05:00,64.6,51.3,29.92,SE,140,0.0,0.0,62,0.00,,,0.00,Wunderground v.1.15,2013-06-08 14:05:00,
2013-06-08 09:10:00,64.7,50.0,29.92,SE,127,1.0,1.0,59,0.00,,,0.00,Wunderground v.1.15,2013-06-08 14:10:00,
2013-06-08 09:20:00,65.4,51.1,29.92,SE,143,0.0,0.0,60,0.00,,,0.00,Wunderground v.1.15,2013-06-08 14:20:00,
2013-06-08 09:40:00,66.5,50.3,29.92,SE,144,0.0,0.0,56,0.00,,,0.00,Wunderground v.1.15,2013-06-08 14:40:00,
2013-06-08 09:45:00,67.0,50.8,29.92,SE,145,0.0,0.0,56,0.00,,,0.00,Wunderground v.1.15,2013-06-08 14:45:00,
2013-06-08 09:55:00,68.5,52.2,29.93,SSW,199,0.0,0.0,56,0.00,,,0.00,Wunderground v.1.15,2013-06-08 14:55:00,
2013-06-08 10:00:00,69.0,52.6,29.93,South,188,0.0,0.0,56,0.00,,,0.00,Wunderground v.1.15,2013-06-08 15:00:00,
2013-06-08 10:05:00,68.8,52.0,29.94,SSE,162,0.0,0.0,55,0.00,,,0.00,Wunderground v.1.15,2013-06-08 15:05:00,
2013-06-08 10:10:00,69.2,52.3,29.94,South,172,0.0,0.0,55,0.00,,,0.00,Wunderground v.1.15,2013-06-08 15:10:00,
2013-06-08 10:20:00,70.5,53.1,29.93,SSW,199,0.0,4.0,54,0.00,,,0.00,Wunderground v.1.15,2013-06-08 15:20:00,
2013-06-08 10:25:00,71.4,53.9,29.93,SSW,195,0.0,4.0,54,0.00,,,0.00,Wunderground v.1.15,2013-06-08 15:25:00,
2013-06-08 10:30:00,72.1,53.0,29.93,South,174,1.0,4.0,51,0.00,,,0.00,Wunderground v.1.15,2013-06-08 15:30:00,
2013-06-08 10:40:00,72.7,55.1,29.92,SSW,198,1.0,4.0,54,0.00,,,0.00,Wunderground v.1.15,2013-06-08 15:40:00,
2013-06-08 10:50:00,72.2,53.1,29.93,South,188,2.0,4.0,51,0.00,,,0.00,Wunderground v.1.15,2013-06-08 15:50:00,
2013-06-08 11:10:00,73.1,54.9,29.93,ESE,113,0.0,0.0,53,0.00,,,0.00,Wunderground v.1.15,2013-06-08 16:10:00,
2013-06-08 11:20:00,74.3,54.5,29.93,SSE,164,1.0,1.0,50,0.00,,,0.00,Wunderground v.1.15,2013-06-08 16:20:00,
2013-06-08 11:30:00,74.0,53.1,29.93,SSW,200,0.0,1.0,48,0.00,,,0.00,Wunderground v.1.15,2013-06-08 16:30:00,
2013-06-08 11:35:00,74.1,53.2,29.92,SSE,162,1.0,1.0,48,0.00,,,0.00,Wunderground v.1.15,2013-06-08 16:35:00,
2013-06-08 11:40:00,73.3,54.1,29.92,SSW,212,2.0,2.0,51,0.00,,,0.00,Wunderground v.1.15,2013-06-08 16:40:00,
2013-06-08 11:45:00,73.8,54.0,29.92,SE,134,1.0,5.0,50,0.00,,,0.00,Wunderground v.1.15,2013-06-08 16:45:00,
2013-06-08 11:50:00,74.3,53.3,29.92,SSW,195,1.0,1.0,48,0.00,,,0.00,Wunderground v.1.15,2013-06-08 16:50:00,
2013-06-08 11:55:00,74.3,53.9,29.92,WSW,247,0.0,1.0,49,0.00,,,0.00,Wunderground v.1.15,2013-06-08 16:55:00,
2013-06-08 12:10:00,75.0,52.2,29.92,SE,141,1.0,1.0,45,0.00,,,0.00,Wunderground v.1.15,2013-06-08 17:10:00,
2013-06-08 12:20:00,74.5,52.4,29.91,SW,226,0.0,0.0,46,0.00,,,0.00,Wunderground v.1.15,2013-06-08 17:20:00,
2013-06-08 12:30:00,75.2,54.2,29.91,SSW,196,1.0,1.0,48,0.00,,,0.00,Wunderground v.1.15,2013-06-08 17:30:00,
2013-06-08 12:40:00,75.0,52.2,29.91,South,169,0.0,0.0,45,0.00,,,0.00,Wunderground v.1.15,2013-06-08 17:40:00,
2013-06-08 12:45:00,74.7,51.9,29.91,SSW,199,0.0,0.0,45,0.00,,,0.00,Wunderground v.1.15,2013-06-08 17:45:00,
2013-06-08 12:50:00,74.0,53.1,29.90,SSW,199,0.0,0.0,48,0.00,,,0.00,Wunderground v.1.15,2013-06-08 17:50:00,
2013-06-08 13:00:00,73.6,53.3,29.90,SSW,199,0.0,0.0,49,0.00,,,0.00,Wunderground v.1.15,2013-06-08 18:00:00,
2013-06-08 13:15:00,73.3,53.0,29.90,SSE,162,1.0,3.0,49,0.00,,,0.00,Wunderground v.1.15,2013-06-08 18:15:00,
2013-06-08 13:25:00,73.6,53.8,29.90,South,171,2.0,2.0,50,0.00,,,0.00,Wunderground v.1.15,2013-06-08 18:25:00,
2013-06-08 13:35:00,73.8,52.3,29.90,South,191,3.0,3.0,47,0.00,,,0.00,Wunderground v.1.15,2013-06-08 18:35:00,
2013-06-08 13:40:00,73.6,52.1,29.90,South,191,2.0,3.0,47,0.00,,,0.00,Wunderground v.1.15,2013-06-08 18:40:00,
2013-06-08 13:45:00,73.6,53.3,29.90,SE,143,0.0,0.0,49,0.00,,,0.00,Wunderground v.1.15,2013-06-08 18:45:00,
2013-06-08 13:50:00,73.6,53.3,29.90,SW,217,0.0,0.0,49,0.00,,,0.00,Wunderground v.1.15,2013-06-08 18:50:00,
2013-06-08 13:55:00,74.0,53.6,29.90,SSE,158,0.0,0.0,49,0.00,,,0.00,Wunderground v.1.15,2013-06-08 18:55:00,
2013-06-08 14:00:00,73.8,54.0,29.90,SE,143,0.0,0.0,50,0.00,,,0.00,Wunderground v.1.15,2013-06-08 19:00:00,
2013-06-08 14:05:00,73.6,53.3,29.90,South,176,1.0,5.0,49,0.00,,,0.00,Wunderground v.1.15,2013-06-08 19:05:00,
2013-06-08 14:15:00,73.6,50.9,29.90,South,169,1.0,1.0,45,0.00,,,0.00,Wunderground v.1.15,2013-06-08 19:15:00,
2013-06-08 14:20:00,73.8,54.0,29.90,SSE,167,0.0,1.0,50,0.00,,,0.00,Wunderground v.1.15,2013-06-08 19:20:00,
2013-06-08 14:30:00,73.6,53.3,29.90,ESE,104,0.0,0.0,49,0.00,,,0.00,Wunderground v.1.15,2013-06-08 19:30:00,
2013-06-08 14:35:00,73.8,53.4,29.89,SE,134,0.0,5.0,49,0.00,,,0.00,Wunderground v.1.15,2013-06-08 19:35:00,
2013-06-08 14:40:00,74.0,53.1,29.89,SSE,167,1.0,6.0,48,0.00,,,0.00,Wunderground v.1.15,2013-06-08 19:40:00,
2013-06-08 14:45:00,74.1,52.6,29.89,SSE,154,1.0,6.0,47,0.00,,,0.00,Wunderground v.1.15,2013-06-08 19:45:00,
2013-06-08 14:50:00,74.5,53.5,29.89,SSW,205,1.0,1.0,48,0.00,,,0.00,Wunderground v.1.15,2013-06-08 19:50:00,
2013-06-08 15:05:00,75.5,53.9,29.89,SE,131,1.0,1.0,47,0.00,,,0.00,Wunderground v.1.15,2013-06-08 20:05:00,
2013-06-08 15:15:00,75.4,54.3,29.89,SSW,200,1.0,8.0,48,0.00,,,0.00,Wunderground v.1.15,2013-06-08 20:15:00,
2013-06-08 15:25:00,75.0,53.4,29.89,SSW,193,1.0,3.0,47,0.00,,,0.00,Wunderground v.1.15,2013-06-08 20:25:00,
2013-06-08 15:35:00,75.9,54.2,29.89,SSW,203,0.0,0.0,47,0.00,,,0.00,Wunderground v.1.15,2013-06-08 20:35:00,
2013-06-08 15:40:00,76.6,54.9,29.89,SE,137,1.0,7.0,47,0.00,,,0.00,Wunderground v.1.15,2013-06-08 20:40:00,
2013-06-08 15:45:00,76.2,52.1,29.89,SSW,202,1.0,1.0,43,0.00,,,0.00,Wunderground v.1.15,2013-06-08 20:45:00,
2013-06-08 15:55:00,75.4,53.8,29.89,SSE,162,1.0,1.0,47,0.00,,,0.00,Wunderground v.1.15,2013-06-08 20:55:00,
2013-06-08 16:00:00,74.8,53.2,29.89,SSE,155,1.0,1.0,47,0.00,,,0.00,Wunderground v.1.15,2013-06-08 21:00:00,
2013-06-08 16:05:00,74.7,53.7,29.88,SSE,157,0.0,0.0,48,0.00,,,0.00,Wunderground v.1.15,2013-06-08 21:05:00,
2013-06-08 16:40:00,74.3,52.8,29.89,SSE,147,0.0,0.0,47,0.00,,,0.00,Wunderground v.1.15,2013-06-08 21:40:00,
2013-06-08 16:50:00,74.7,53.7,29.89,SSW,199,1.0,1.0,48,0.00,,,0.00,Wunderground v.1.15,2013-06-08 21:50:00,
2013-06-08 16:55:00,74.7,53.1,29.89,South,189,1.0,1.0,47,0.00,,,0.00,Wunderground v.1.15,2013-06-08 21:55:00,
2013-06-08 17:00:00,75.0,54.0,29.89,SSE,165,0.0,0.0,48,0.00,,,0.00,Wunderground v.1.15,2013-06-08 22:00:00,
2013-06-08 17:05:00,75.0,53.4,29.89,SE,134,0.0,0.0,47,0.00,,,0.00,Wunderground v.1.15,2013-06-08 22:05:00,
2013-06-08 17:10:00,74.8,53.2,29.89,South,175,1.0,1.0,47,0.00,,,0.00,Wunderground v.1.15,2013-06-08 22:10:00,
2013-06-08 17:20:00,75.2,53.0,29.89,SE,141,2.0,2.0,46,0.00,,,0.00,Wunderground v.1.15,2013-06-08 22:20:00,
2013-06-08 17:25:00,75.0,52.8,29.89,ESE,114,2.0,2.0,46,0.00,,,0.00,Wunderground v.1.15,2013-06-08 22:25:00,
2013-06-08 17:30:00,74.8,53.2,29.89,SSE,157,0.0,0.0,47,0.00,,,0.00,Wunderground v.1.15,2013-06-08 22:30:00,
2013-06-08 17:40:00,74.8,53.8,29.89,SSW,209,0.0,0.0,48,0.00,,,0.00,Wunderground v.1.15,2013-06-08 22:40:00,
2013-06-08 17:50:00,75.2,51.8,29.89,SE,137,0.0,0.0,44,0.00,,,0.00,Wunderground v.1.15,2013-06-08 22:50:00,
2013-06-08 18:00:00,74.8,52.0,29.89,SE,133,1.0,1.0,45,0.00,,,0.00,Wunderground v.1.15,2013-06-08 23:00:00,
2013-06-08 18:15:00,74.8,53.2,29.89,SE,124,1.0,1.0,47,0.00,,,0.00,Wunderground v.1.15,2013-06-08 23:15:00,
2013-06-08 18:25:00,74.5,51.2,29.89,SE,144,1.0,1.0,44,0.00,,,0.00,Wunderground v.1.15,2013-06-08 23:25:00,
2013-06-08 18:30:00,74.5,51.2,29.89,SE,143,0.0,1.0,44,0.00,,,0.00,Wunderground v.1.15,2013-06-08 23:30:00,
2013-06-08 18:40:00,74.3,51.6,29.88,SE,140,0.0,0.0,45,0.00,,,0.00,Wunderground v.1.15,2013-06-08 23:40:00,
2013-06-08 18:45:00,74.3,52.2,29.88,SSE,151,0.0,0.0,46,0.00,,,0.00,Wunderground v.1.15,2013-06-08 23:45:00,
2013-06-08 18:50:00,74.3,52.2,29.88,South,176,0.0,0.0,46,0.00,,,0.00,Wunderground v.1.15,2013-06-08 23:50:00,
2013-06-08 19:00:00,74.1,53.2,29.88,SSE,147,0.0,0.0,48,0.00,,,0.00,Wunderground v.1.15,2013-06-09 00:00:00,
2013-06-08 19:05:00,74.1,52.0,29.88,SSE,147,0.0,0.0,46,0.00,,,0.00,Wunderground v.1.15,2013-06-09 00:05:00,
2013-06-08 19:10:00,74.0,51.9,29.88,SE,137,0.0,0.0,46,0.00,,,0.00,Wunderground v.1.15,2013-06-09 00:10:00,
2013-06-08 19:20:00,74.0,51.9,29.88,South,172,1.0,1.0,46,0.00,,,0.00,Wunderground v.1.15,2013-06-09 00:20:00,
2013-06-08 19:30:00,74.0,51.9,29.88,SE,126,0.0,0.0,46,0.00,,,0.00,Wunderground v.1.15,2013-06-09 00:30:00,
2013-06-08 19:40:00,73.4,53.1,29.87,SE,128,0.0,0.0,49,0.00,,,0.00,Wunderground v.1.15,2013-06-09 00:40:00,
2013-06-08 19:45:00,73.3,51.8,29.87,ESE,119,0.0,0.0,47,0.00,,,0.00,Wunderground v.1.15,2013-06-09 00:45:00,
2013-06-08 19:50:00,73.1,52.8,29.88,ESE,119,0.0,0.0,49,0.00,,,0.00,Wunderground v.1.15,2013-06-09 00:50:00,
2013-06-08 19:55:00,72.9,52.6,29.88,ESE,119,0.0,0.0,49,0.00,,,0.00,Wunderground v.1.15,2013-06-09 00:55:00,
2013-06-08 20:00:00,72.7,51.9,29.88,ESE,119,0.0,0.0,48,0.00,,,0.00,Wunderground v.1.15,2013-06-09 01:00:00,
2013-06-08 20:05:00,72.6,51.8,29.87,ESE,119,0.0,0.0,48,0.00,,,0.00,Wunderground v.1.15,2013-06-09 01:05:00,
2013-06-08 20:35:00,71.7,52.6,29.86,ESE,119,0.0,0.0,51,0.00,,,0.00,Wunderground v.1.15,2013-06-09 01:35:00,
2013-06-08 20:40:00,71.5,52.9,29.86,ESE,119,0.0,0.0,52,0.00,,,0.00,Wunderground v.1.15,2013-06-09 01:40:00,
2013-06-08 20:55:00,71.0,53.0,29.87,ESE,119,0.0,0.0,53,0.00,,,0.00,Wunderground v.1.15,2013-06-09 01:55:00,
2013-06-08 21:00:00,70.9,53.4,29.87,ESE,119,0.0,0.0,54,0.00,,,0.00,Wunderground v.1.15,2013-06-09 02:00:00,
2013-06-08 21:05:00,70.5,54.0,29.87,ESE,119,0.0,0.0,56,0.00,,,0.00,Wunderground v.1.15,2013-06-09 02:05:00,
2013-06-08 21:10:00,70.3,53.4,29.87,ESE,119,0.0,0.0,55,0.00,,,0.00,Wunderground v.1.15,2013-06-09 02:10:00,
2013-06-08 21:15:00,70.2,54.2,29.87,ESE,119,0.0,0.0,57,0.00,,,0.00,Wunderground v.1.15,2013-06-09 02:15:00,
2013-06-08 21:25:00,69.3,53.9,29.88,ESE,119,0.0,0.0,58,0.00,,,0.00,Wunderground v.1.15,2013-06-09 02:25:00,
2013-06-08 21:30:00,69.2,53.8,29.88,ESE,119,0.0,0.0,58,0.00,,,0.00,Wunderground v.1.15,2013-06-09 02:30:00,
2013-06-08 21:35:00,69.2,54.3,29.88,ESE,119,0.0,0.0,59,0.00,,,0.00,Wunderground v.1.15,2013-06-09 02:35:00,
2013-06-08 21:45:00,69.0,54.1,29.88,ESE,119,0.0,0.0,59,0.00,,,0.00,Wunderground v.1.15,2013-06-09 02:45:00,
2013-06-08 22:00:00,68.5,54.1,29.90,ESE,119,0.0,0.0,60,0.00,,,0.00,Wunderground v.1.15,2013-06-09 03:00:00,
2013-06-08 22:05:00,68.3,53.9,29.90,ESE,119,0.0,0.0,60,0.00,,,0.00,Wunderground v.1.15,2013-06-09 03:05:00,
2013-06-08 22:15:00,68.2,53.8,29.90,ESE,119,0.0,0.0,60,0.00,,,0.00,Wunderground v.1.15,2013-06-09 03:15:00,
2013-06-08 22:20:00,68.0,53.6,29.90,ESE,119,0.0,0.0,60,0.00,,,0.00,Wunderground v.1.15,2013-06-09 03:20:00,
2013-06-08 22:25:00,68.0,53.6,29.90,SE,144,0.0,0.0,60,0.00,,,0.00,Wunderground v.1.15,2013-06-09 03:25:00,
2013-06-08 22:35:00,67.7,53.3,29.89,ENE,73,0.0,0.0,60,0.00,,,0.00,Wunderground v.1.15,2013-06-09 03:35:00,
2013-06-08 22:45:00,67.7,53.8,29.89,SSE,158,0.0,0.0,61,0.00,,,0.00,Wunderground v.1.15,2013-06-09 03:45:00,
2013-06-08 23:00:00,67.5,53.1,29.90,ESE,116,0.0,0.0,60,0.00,,,0.00,Wunderground v.1.15,2013-06-09 04:00:00,
2013-06-08 23:05:00,67.5,53.1,29.90,ESE,116,0.0,0.0,60,0.00,,,0.00,Wunderground v.1.15,2013-06-09 04:05:00,
2013-06-08 23:15:00,67.2,52.8,29.90,ENE,62,0.0,0.0,60,0.00,,,0.00,Wunderground v.1.15,2013-06-09 04:15:00,
2013-06-08 23:25:00,67.0,53.1,29.90,ENE,62,0.0,0.0,61,0.00,,,0.00,Wunderground v.1.15,2013-06-09 04:25:00,
2013-06-08 23:30:00,67.0,53.1,29.90,ENE,65,0.0,0.0,61,0.00,,,0.00,Wunderground v.1.15,2013-06-09 04:30:00,
2013-06-08 23:35:00,66.8,52.5,29.90,ENE,65,0.0,0.0,60,0.00,,,0.00,Wunderground v.1.15,2013-06-09 04:35:00,
2013-06-08 23:50:00,66.5,52.6,29.89,ENE,66,0.0,0.0,61,0.00,,,0.00,Wunderground v.1.15,2013-06-09 04:50:00,
2013-06-08 23:55:00,66.3,52.4,29.89,ENE,69,0.0,0.0,61,0.00,,,0.00,Wunderground v.1.15,2013-06-09 04:55:00,